MAU129 FIMP-FMEE

Flight info

Callsign MAU129
Flight time 0h 28m
Altitude 20000
Route SOBAT1 SOBAT SOBAT2R
Aircraft A359/H-SDE2E3GHIJ3J4J5LM1ORWXY/LB1D1

Departure

Time 2026-05-08 20:07
Airport Sir Seewoosagur Ramgoolam International Airport (FIMP)

Arrival

Time 2026-05-08 20:35
Airport Roland Garros Airport (FMEE)
Time Latitude Longitude Altitude Speed Heading
2026-05-08 19:42 -20.43120 57.67771 170 ft 0 kts 208°
2026-05-08 19:43 -20.43126 57.67768 170 ft 0 kts 208°
2026-05-08 20:00 -20.43111 57.67778 169 ft 4 kts 219°
2026-05-08 20:00 -20.43092 57.67798 169 ft 4 kts 236°
2026-05-08 20:01 -20.43079 57.67823 169 ft 4 kts 250°
2026-05-08 20:01 -20.43073 57.67850 168 ft 4 kts 265°
2026-05-08 20:01 -20.43075 57.67878 168 ft 4 kts 293°
2026-05-08 20:01 -20.43076 57.67883 176 ft 0 kts 298°
2026-05-08 20:03 -20.43076 57.67882 175 ft 1 kts 297°
2026-05-08 20:03 -20.43068 57.67862 168 ft 11 kts 291°
2026-05-08 20:04 -20.43017 57.67765 171 ft 19 kts 302°
2026-05-08 20:04 -20.42947 57.67651 175 ft 16 kts 319°
2026-05-08 20:04 -20.42853 57.67589 178 ft 16 kts 325°
2026-05-08 20:04 -20.42775 57.67522 181 ft 5 kts 317°
2026-05-08 20:05 -20.42764 57.67510 181 ft 0 kts 318°
2026-05-08 20:05 -20.42695 57.67475 185 ft 23 kts 342°
2026-05-08 20:05 -20.42626 57.67518 195 ft 13 kts 102°
2026-05-08 20:05 -20.42639 57.67553 184 ft 0 kts 116°
2026-05-08 20:06 -20.42643 57.67561 183 ft 14 kts 116°
2026-05-08 20:06 -20.42830 57.67952 168 ft 102 kts 118°
2026-05-08 20:06 -20.43267 57.68862 143 ft 172 kts 116°
2026-05-08 20:06 -20.43857 57.70048 732 ft 185 kts 118°
2026-05-08 20:07 -20.44653 57.71116 1649 ft 191 kts 141°
2026-05-08 20:07 -20.46006 57.71434 2303 ft 216 kts 185°
2026-05-08 20:07 -20.47417 57.70668 2849 ft 247 kts 218°
2026-05-08 20:07 -20.48686 57.69306 3458 ft 266 kts 224°
2026-05-08 20:08 -20.49982 57.67859 4291 ft 272 kts 223°
2026-05-08 20:08 -20.51341 57.66415 5131 ft 279 kts 221°
2026-05-08 20:08 -20.52742 57.64977 6018 ft 284 kts 220°
2026-05-08 20:08 -20.54189 57.63522 6959 ft 287 kts 220°
2026-05-08 20:09 -20.55652 57.62066 7965 ft 288 kts 220°
2026-05-08 20:09 -20.57123 57.60610 8945 ft 290 kts 220°
2026-05-08 20:09 -20.58620 57.59134 9615 ft 294 kts 220°
2026-05-08 20:09 -20.60130 57.57647 9918 ft 296 kts 221°
2026-05-08 20:10 -20.61647 57.56151 9970 ft 297 kts 220°
2026-05-08 20:10 -20.63071 57.54578 9969 ft 301 kts 230°
2026-05-08 20:10 -20.63947 57.52548 9977 ft 305 kts 257°
2026-05-08 20:10 -20.63908 57.50279 10158 ft 314 kts 279°
2026-05-08 20:11 -20.63441 57.47910 10423 ft 337 kts 282°
2026-05-08 20:11 -20.62891 57.45393 10807 ft 356 kts 283°
2026-05-08 20:11 -20.62324 57.42768 11380 ft 366 kts 282°
2026-05-08 20:11 -20.61960 57.40060 12045 ft 372 kts 270°
2026-05-08 20:12 -20.62099 57.37291 12861 ft 375 kts 263°
2026-05-08 20:12 -20.62354 57.34532 13563 ft 379 kts 263°
2026-05-08 20:12 -20.62621 57.31720 14317 ft 382 kts 263°
2026-05-08 20:12 -20.62886 57.28885 15048 ft 384 kts 263°
2026-05-08 20:13 -20.63148 57.26029 15683 ft 388 kts 263°
2026-05-08 20:13 -20.63412 57.23135 16322 ft 393 kts 262°
2026-05-08 20:13 -20.63674 57.20249 17067 ft 394 kts 262°
2026-05-08 20:13 -20.63939 57.17319 17815 ft 396 kts 263°
2026-05-08 20:14 -20.64204 57.14365 18482 ft 401 kts 263°
2026-05-08 20:14 -20.64469 57.11410 19045 ft 405 kts 263°
2026-05-08 20:14 -20.64741 57.08386 19618 ft 409 kts 263°
2026-05-08 20:14 -20.65011 57.05360 19995 ft 410 kts 263°
2026-05-08 20:15 -20.65279 57.02348 20126 ft 415 kts 263°
2026-05-08 20:15 -20.65554 56.99257 20134 ft 419 kts 263°
2026-05-08 20:15 -20.65830 56.96144 20135 ft 420 kts 263°
2026-05-08 20:15 -20.66106 56.93041 20135 ft 420 kts 263°
2026-05-08 20:16 -20.66383 56.89923 20132 ft 420 kts 263°
2026-05-08 20:16 -20.66656 56.86818 20132 ft 420 kts 263°
2026-05-08 20:16 -20.66928 56.83704 20128 ft 420 kts 264°
2026-05-08 20:16 -20.67195 56.80633 20132 ft 420 kts 264°
2026-05-08 20:17 -20.67465 56.77529 20132 ft 420 kts 263°
2026-05-08 20:17 -20.67735 56.74421 20133 ft 420 kts 263°
2026-05-08 20:17 -20.68005 56.71316 20132 ft 421 kts 263°
2026-05-08 20:17 -20.68276 56.68195 20132 ft 421 kts 264°
2026-05-08 20:18 -20.68545 56.65080 20135 ft 420 kts 263°
2026-05-08 20:18 -20.68814 56.61960 20135 ft 420 kts 263°
2026-05-08 20:18 -20.69079 56.58888 20135 ft 421 kts 264°
2026-05-08 20:18 -20.69346 56.55774 20135 ft 421 kts 264°
2026-05-08 20:19 -20.69614 56.52660 20132 ft 421 kts 263°
2026-05-08 20:19 -20.69881 56.49536 20132 ft 421 kts 263°
2026-05-08 20:19 -20.70148 56.46413 20136 ft 422 kts 263°
2026-05-08 20:19 -20.70414 56.43292 20135 ft 421 kts 264°
2026-05-08 20:20 -20.70679 56.40175 20136 ft 420 kts 263°
2026-05-08 20:20 -20.70940 56.37096 20138 ft 420 kts 263°
2026-05-08 20:20 -20.71204 56.33978 20138 ft 421 kts 263°
2026-05-08 20:20 -20.71380 56.31908 20137 ft 421 kts 263°
2026-05-08 20:21 -20.71643 56.28792 20135 ft 420 kts 264°
2026-05-08 20:21 -20.71800 56.25661 20136 ft 422 kts 268°
2026-05-08 20:21 -20.71761 56.22526 20136 ft 422 kts 270°
2026-05-08 20:21 -20.71685 56.19420 19777 ft 415 kts 270°
2026-05-08 20:22 -20.71605 56.16313 18843 ft 421 kts 270°
2026-05-08 20:22 -20.71527 56.13190 17806 ft 430 kts 270°
2026-05-08 20:22 -20.71448 56.09999 17073 ft 426 kts 270°
2026-05-08 20:22 -20.71370 56.06847 16408 ft 421 kts 270°
2026-05-08 20:23 -20.71293 56.03721 15748 ft 417 kts 270°
2026-05-08 20:23 -20.71218 56.00680 15099 ft 412 kts 270°
2026-05-08 20:23 -20.71142 55.97631 14432 ft 408 kts 270°
2026-05-08 20:23 -20.71067 55.94608 13769 ft 405 kts 271°
2026-05-08 20:24 -20.70991 55.91617 13090 ft 400 kts 270°
2026-05-08 20:24 -20.70917 55.88666 12430 ft 395 kts 271°
2026-05-08 20:24 -20.70842 55.85744 11789 ft 390 kts 270°
2026-05-08 20:24 -20.70770 55.82895 11174 ft 386 kts 271°
2026-05-08 20:25 -20.70697 55.80081 10990 ft 368 kts 271°
2026-05-08 20:25 -20.70626 55.77408 10875 ft 350 kts 270°
2026-05-08 20:25 -20.70559 55.74860 10774 ft 334 kts 270°
2026-05-08 20:25 -20.70496 55.72430 10635 ft 320 kts 271°
2026-05-08 20:26 -20.70434 55.70099 10498 ft 307 kts 270°
2026-05-08 20:26 -20.70376 55.67891 10355 ft 296 kts 270°
2026-05-08 20:26 -20.70318 55.65699 10029 ft 293 kts 271°
2026-05-08 20:26 -20.70261 55.63505 9661 ft 302 kts 270°
2026-05-08 20:27 -20.70185 55.61212 9342 ft 310 kts 271°
2026-05-08 20:27 -20.70095 55.58938 8995 ft 309 kts 271°
2026-05-08 20:27 -20.70004 55.56643 8624 ft 307 kts 271°
2026-05-08 20:27 -20.69916 55.54370 8282 ft 305 kts 271°
2026-05-08 20:28 -20.69870 55.52120 8067 ft 297 kts 266°
2026-05-08 20:28 -20.70216 55.50007 7528 ft 285 kts 249°
2026-05-08 20:28 -20.71196 55.48165 6614 ft 287 kts 227°
2026-05-08 20:28 -20.72481 55.46579 6150 ft 274 kts 224°
2026-05-08 20:29 -20.73717 55.45128 5908 ft 256 kts 224°
2026-05-08 20:29 -20.74886 55.43768 5772 ft 246 kts 223°
2026-05-08 20:29 -20.76022 55.42447 5645 ft 236 kts 223°
2026-05-08 20:29 -20.77106 55.41188 5542 ft 223 kts 223°
2026-05-08 20:30 -20.78126 55.40002 5486 ft 210 kts 222°
2026-05-08 20:30 -20.79075 55.38898 5400 ft 197 kts 222°
2026-05-08 20:30 -20.79973 55.37858 5286 ft 182 kts 221°
2026-05-08 20:30 -20.80991 55.37113 4771 ft 177 kts 188°
2026-05-08 20:31 -20.82141 55.37339 4194 ft 170 kts 140°
2026-05-08 20:31 -20.82837 55.38320 3750 ft 168 kts 116°
2026-05-08 20:31 -20.83355 55.39442 3449 ft 166 kts 114°
2026-05-08 20:31 -20.83833 55.40514 3347 ft 151 kts 114°
2026-05-08 20:32 -20.84267 55.41475 3247 ft 136 kts 114°
2026-05-08 20:32 -20.84670 55.42363 2964 ft 133 kts 114°
2026-05-08 20:32 -20.85069 55.43256 2627 ft 132 kts 114°
2026-05-08 20:32 -20.85486 55.44149 2188 ft 137 kts 118°
2026-05-08 20:33 -20.85943 55.45087 1663 ft 146 kts 117°
2026-05-08 20:33 -20.86393 55.46057 1240 ft 146 kts 116°
2026-05-08 20:33 -20.86834 55.47015 903 ft 141 kts 116°
2026-05-08 20:33 -20.87256 55.47942 642 ft 136 kts 116°
2026-05-08 20:34 -20.87679 55.48816 397 ft 128 kts 114°
2026-05-08 20:34 -20.88054 55.49639 209 ft 119 kts 117°
2026-05-08 20:34 -20.88806 55.51237 54 ft 102 kts 116°
2026-05-08 20:35 -20.89001 55.51657 68 ft 40 kts 116°
2026-05-08 20:35 -20.89117 55.51908 84 ft 37 kts 116°
2026-05-08 20:35 -20.89234 55.52148 66 ft 35 kts 117°
2026-05-08 20:35 -20.89381 55.52185 65 ft 24 kts 224°
2026-05-08 20:36 -20.89371 55.52047 68 ft 20 kts 297°
2026-05-08 20:36 -20.89302 55.51908 65 ft 22 kts 298°
2026-05-08 20:36 -20.89227 55.51744 65 ft 26 kts 297°
2026-05-08 20:36 -20.89138 55.51563 65 ft 29 kts 297°
2026-05-08 20:37 -20.89054 55.51369 61 ft 24 kts 296°
2026-05-08 20:37 -20.89029 55.51274 62 ft 11 kts 252°
2026-05-08 20:37 -20.89073 55.51235 59 ft 6 kts 209°
2026-05-08 20:37 -20.89079 55.51232 57 ft 0 kts 208°